Regional Weather Roundup
Issued by NWS

Home | Current Version | Previous Version | Text Only | Print | Product List | Glossary Off
Versions: 1 2 3 4 5 6 7 8 9 10 11 12 13 14 15 16 17 18 19 20 21 22 23 24 25 26 27 28 29 30 31 32 33 34 35 36 37 38 39 40 41 42 43 44 45 46 47 48 49 50

000
ASUS43 KBIS 021510
RWRND

NORTH DAKOTA REGIONAL WEATHER ROUNDUP
NATIONAL WEATHER SERVICE BISMARCK ND
1000 AM CDT SUN AUG 02 2015

NOTE: "FAIR" INDICATES FEW OR NO CLOUDS BELOW 12,000 FEET WITH NO
SIGNIFICANT WEATHER AND/OR OBSTRUCTIONS TO VISIBILITY.


NDZ001>003-009>011-017-021600-
NORTHWEST NORTH DAKOTA

CITY           SKY/WX    TMP DP  RH WIND       PRES   REMARKS
WILLISTON      SUNNY     70  53  54 N10       30.00R
MINOT          SUNNY     68  55  63 NW14      29.93R
MINOT AFB      SUNNY     70  55  58 N15       29.92R
$$

NDZ018>021-031>035-040>046-021600-
SOUTHWEST NORTH DAKOTA

CITY           SKY/WX    TMP DP  RH WIND       PRES   REMARKS
BISMARCK       SUNNY     71  55  56 N8        29.93R
DICKINSON      SUNNY     70  53  54 N9        30.00R
GARRISON         N/A     69  57  65 N9        29.93R
HETTINGER ARPT SUNNY     69  54  58 N12       30.00S
$$

NDZ004>008-012>016-024-026-027-054-021600-
NORTHEAST NORTH DAKOTA

CITY           SKY/WX    TMP DP  RH WIND       PRES   REMARKS
GRAND FORKS    MOSUNNY   70  58  65 NW14      29.79R
GRND FRKS AFB  SUNNY     70  59  67 N15       29.80R
DEVILS LAKE    SUNNY     66  54  63 N17       29.85R
$$

NDZ022-023-025-028>030-036>039-047>053-021600-
SOUTHEAST NORTH DAKOTA

CITY           SKY/WX    TMP DP  RH WIND       PRES   REMARKS
FARGO          MOSUNNY   72  61  68 NW13      29.78R
JAMESTOWN      SUNNY     69  59  70 N13       29.86R
$$




USA.gov is the U.S. government's official web portal to all federal, state and local government web resources and services.